Location: Antoign�
(47.0844°N, 0.1131°W)
Time: 03:37:06
(UTC+00:00)

Cosmos 2221 Rocket - Pass Details

Date: 03 March 2021
Orbit: 621 x 647 km, 82.5° (Epoch: 16 April)

Event Time Altitude Azimuth Distance (km) Brightness Sun altitude
Rises 20:17:57 0° 351° (N) 2,913 7.4 -25.8°
Reaches altitude 10° 20:20:11 10° 352° (N) 2,003 6.5 -26.2°
Enters shadow 20:23:10 42° 355° (N) 892 4.4 -26.7°
